Sand Key, FL current weather conditions

sailwx.info

Wind from 280 at 14 knots gusting 16

Air temperature 26.1° C

Last reported at 2014-Oct-31 17:50 UTC.
Time now 2014-Oct-31 19:19 UTC

Location: N 24°28' W 081°53'.
View on Google Maps.

See reports from other nearby stations

  
Tides and Currents Weather Stations Pressure Air Temp Water Temp Dewpoint Dewpoint Depression Visibility Wind Speed Wind Dir Waves Ship Positions
date/time (UTC)wind fromknots sea level pressurealtimeterstation pressurevisibilityair tempwater tempwave heightnotes
2014-Oct-31 17:50 280 14 gusting 16 26.1
2014-Oct-31 16:50 290 13 gusting 16 26.0
2014-Oct-31 15:50 290 14 gusting 16 26.0
2014-Oct-31 14:50 280 15 gusting 17 25.9
2014-Oct-31 13:50 260 13 gusting 15 26.0
2014-Oct-31 12:50 260 10 gusting 12 25.8
2014-Oct-31 11:50 260 9 gusting 11 25.6
2014-Oct-31 10:50 250 8 gusting 11 25.6
2014-Oct-31 09:50 250 8 gusting 10 25.4
2014-Oct-31 08:50 360 3 gusting 10 25.5
2014-Oct-31 07:50 350 4 gusting 12 25.6
2014-Oct-31 06:50 25.7
2014-Oct-31 05:50 020 5 gusting 17 25.8
2014-Oct-31 04:50 080 5 gusting 7 25.8
2014-Oct-31 03:50 25.9
2014-Oct-31 02:50 090 3 gusting 6 26.1
2014-Oct-31 01:50 230 3 gusting 5 26.0
2014-Oct-31 00:50 280 4 gusting 5 25.8
2014-Oct-30 22:50 310 2 gusting 4 26.3
2014-Oct-30 21:50 27.4
2014-Oct-30 20:50 010 1 gusting 3 26.3
2014-Oct-30 19:50 080 2 gusting 3 26.0
2014-Oct-30 18:50 080 2 gusting 3 25.9
2014-Oct-30 17:50 100 4 gusting 5 25.8
2014-Oct-30 16:50 100 5 gusting 7 25.5
2014-Oct-30 15:50 070 6 gusting 7 25.4
2014-Oct-30 14:50 070 6 gusting 7 25.3
2014-Oct-30 13:50 080 8 gusting 8 25.3
2014-Oct-30 12:50 070 7 gusting 8 25.1
2014-Oct-30 11:50 050 6 gusting 7 25.0
2014-Oct-30 10:50 040 5 gusting 6 25.2
2014-Oct-30 09:50 040 7 gusting 8 25.2
2014-Oct-30 08:50 050 6 gusting 7 25.3
2014-Oct-30 07:50 050 8 gusting 9 25.3
2014-Oct-30 06:50 040 7 gusting 8 25.5
2014-Oct-30 05:50 050 7 gusting 8 25.6
2014-Oct-30 04:50 040 6 gusting 7 25.6
2014-Oct-30 03:50 080 4 gusting 5 26.2
2014-Oct-30 02:50 110 5 gusting 7 26.2
2014-Oct-30 01:50 080 5 gusting 6 26.3
2014-Oct-30 00:50 100 6 gusting 8 26.4
2014-Oct-29 22:50 100 7 gusting 8 26.5
2014-Oct-29 21:50 130 8 gusting 9 26.6
2014-Oct-29 20:50 110 7 gusting 8 26.7
2014-Oct-29 19:50 110 8 gusting 9 26.7